[Iaude] MPEC G87: 2024 GD1 [a=2.09,e=0.52,i=7.8,H=24.8]
    mpec at cfa.harvard.edu 
    mpec at cfa.harvard.edu
       
    Sun Apr  7 04:37:29 EDT 2024
    
    
  
M.P.E.C. 2024-G87                                 Issued 2024 April 7, 08:36 UT
     The Minor Planet Electronic Circulars contain information on unusual
         minor planets, routine data on comets and natural satellites,
         and occasional editorial announcements.  They are published
    on behalf of Division F of the International Astronomical Union by the
          Minor Planet Center, Smithsonian Astrophysical Observatory,
                          Cambridge, MA 02138, U.S.A.
			  
             Prepared using the Tamkin Foundation Computer Network
                              MPC at CFA.HARVARD.EDU
            URL https://www.minorplanetcenter.net/    ISSN 1523-6714
                                    2024 GD1                                    
Observations:
     K24G01D*1C2024 04 04.32330313 28 41.066-15 17 33.40         20.88GVEG087G96
     K24G01D 1C2024 04 04.32886013 28 41.840-15 18 09.86         20.86GVEG087G96
     K24G01D 1C2024 04 04.33441413 28 42.568-15 18 46.66         20.92GVEG087G96
     K24G01D KC2024 04 04.43080513 28 55.884-15 29 21.98         21.08GVEG087I52
     K24G01D KC2024 04 04.43582613 28 56.536-15 29 54.60         21.64GVEG087I52
     K24G01D KC2024 04 04.44083613 28 57.209-15 30 28.08         20.80GVEG087I52
     K24G01D KC2024 04 07.33798013 38 11.893-21 33 32.90         20.63GVEG087I52
     K24G01D KC2024 04 07.34001913 38 12.325-21 33 49.86         20.70GVEG087I52
     K24G01D KC2024 04 07.34206813 38 12.649-21 34 07.18         20.31GVEG087I52
     K24G01D KC2024 04 07.34411213 38 13.074-21 34 24.13         20.34GVEG087I52
Observer details:
G96 Mt. Lemmon Survey.  Observer G. J. Leonard.  Measurers T. Beuden, V. F.
    Carvajal, D. Fay, J. B. Fazekas, D. C. Fuls, A. R. Gibbs, A. D. Grauer, H.
    Groeller, J. K. Hogan, R. A. Kowalski, S. M. Larson, G. J. Leonard, D.
    Rankin, R. L. Seaman, F. C. Shelly, K. W. Wierzchos.  1.5-m reflector +
    10K CCD.
I52 Steward Observatory, Mt. Lemmon Station.  Observers R. A. Kowalski, J. K.
    Hogan.  Measurers T. Beuden, V. F. Carvajal, D. Fay, J. B. Fazekas, D. C.
    Fuls, A. R. Gibbs, A. D. Grauer, H. Groeller, J. K. Hogan, R. A. Kowalski,
    S. M. Larson, G. J. Leonard, D. Rankin, R. L. Seaman, F. C. Shelly, K. W.
    Wierzchos.  1.0-m prime focus + CCD.
Orbital elements:
2024 GD1                                                 Earth MOID = 0.0642 AU
Epoch 2024 Mar. 31.0 TT = JDT 2460400.5                 MPC                     
M 345.38010              (2000.0)            P               Q                  
n   0.32541092     Peri.  230.08814     -0.47611840     +0.87896157             
a   2.0933795      Node    11.57196     -0.75985491     -0.39565971             
e   0.5216715      Incl.    7.78226     -0.44264181     -0.26623288             
P   3.03           H   24.85          G   0.15           U   9                  
Residuals in seconds of arc
240404 G96  0.1-  0.1-    240404 I52  0.2-  0.4+    240407 I52  0.4-  0.0
240404 G96  0.2+  0.1+    240404 I52  0.8-  0.1-    240407 I52  0.1+  0.3+
240404 G96  0.1-  0.1-    240407 I52  0.2-  0.2-
240404 I52  0.7+  0.1-    240407 I52  0.5+  0.0
Ephemeris:
2024 GD1                 a,e,i = 2.09, 0.52, 8                   q = 1.0013
Date    TT    R. A. (2000) Decl.     Delta      r    Elong.  Phase     V
2024 03 08    12 52 29.3 +05 39 51   0.3129  1.2840   155.5    18.7    23.8
...
2024 03 23    13 07 10.1 -00 57 33   0.1954  1.1869   165.5    12.1    22.4
...
2024 03 31    13 18 57.1 -08 37 14   0.1435  1.1401   169.0     9.7    21.6
...
2024 04 06    13 33 36.2 -18 33 59   0.1108  1.1083   165.4    13.2    21.1
2024 04 07    13 36 58.4 -20 45 24   0.1060  1.1032   163.9    14.6    21.0
2024 04 08    13 40 44.3 -23 07 57   0.1015  1.0983   162.2    16.2    21.0
...
2024 04 14    14 17 20.1 -41 38 42   0.08071 1.0709   146.1    31.5    20.9
...
2024 04 22    17 13 37.7 -68 54 25   0.07688 1.0405   115.4    60.7    21.5
...
2024 05 07    23 14 25.3 -53 50 23   0.1274  1.0061    85.0    87.7    23.5
A. U. Tomatic                (C) Copyright 2024 MPC           M.P.E.C. 2024-G87
    
    
More information about the Iaude
mailing list